Tracking 17154 objects as of 2-August-2015
HD Live streaming from Space Station

CZ-4B DEB

Track CZ-4B DEB now!
10-day predictions
CZ-4B DEB is classified as:


NORAD ID: 36290
Int'l Code: 2008-053L
Perigee: 568.2 km
Apogee: 596.7 km
Inclination: 97.5 °
Period: 96.2 minutes
Semi major axis: 6953 km
RCS: 0.0218 m2 (small)
Launch date: October 25, 2008
Source: People's Republic of China (PRC)

Note: This is SATELLITE DEBRIS
Your satellite tracking list
Your tracking list is empty





NASA's NSSDC Master Catalog

Two Line Element Set (TLE):
1 36290U 08053L   15212.22702045  .00000823  00000-0  75677-4 0  9998
2 36290 097.5488 211.0983 0020492 330.6768 029.3303 14.97271622347282

Source of the keplerian elements: AFSPC

N2YO: 297